Location: DARK SKY Beskydy - Park tmavé oblohy, www.darkskybeskydy.cz
(49.4926°N, 18.5016°E)
Time: 04:16:33
(UTC+02:00)

A-11 Canister half - Pass Details

Date: 01 March 2024
Orbit: 1513 x 1686 km, 47.2° (Epoch: 24 April)

Event Time Altitude Azimuth Distance (km) Brightness Sun altitude
Rises 01:34:35 0° 244° (WSW) 4,933 - -43.4°
Reaches altitude 10° 01:37:46 10° 243° (WSW) 3,947 - -43.1°
Maximum altitude 01:47:50 70° 162° (SSE) 1,763 - -42.1°
Exits shadow 01:50:34 52° 102° (ESE) 2,004 9.5 -41.8°
Drops below altitude 10° 01:57:44 10° 82° (E) 3,883 11.5 -41.1°
Sets 02:00:51 0° 81° (E) 4,850 12.2 -40.8°
